Regional Weather Roundup
Issued by NWS Jackson, KY

Home | Current Version | Previous Version | Text Only | Print | Product List | Glossary On
Versions: 1 2 3 4 5 6 7 8 9 10 11 12 13 14 15 16 17 18 19 20 21 22 23 24 25 26 27 28 29 30 31 32 33 34 35 36 37 38 39 40 41 42 43 44 45 46 47 48 49 50
000
ASUS43 KJKL 240210
RWRJKL

EAST KENTUCKY HOURLY WEATHER ROUNDUP
NATIONAL WEATHER SERVICE JACKSON KY
900 PM EST MON JAN 23 2017

NOTE: "FAIR" INDICATES FEW OR NO CLOUDS BELOW 12,000 FEET WITH
NO SIGNIFICANT WEATHER AND/OR OBSTRUCTIONS TO VISIBILITY.

* THESE REPORTS ARE NOT UNDER NWS QUALITY CONTROL AND MAY NOT
  REPORT WEATHER SUCH AS PRECIPITATION AND FOG.

KYZ079-080-083-085-087-088-110-112-115-119-120-240300
...EASTERN KENTUCKY...

CITY           SKY/WX    TMP DP  RH WIND       PRES   REMARKS
JACKSON        LGT RAIN  46  44  93 W13       29.59R FOG
LONDON         LGT RAIN  44  41  89 NW9G20    29.66R FOG
SOMERSET*      CLOUDY    43  43 100 NW13      29.71R FOG
MONTICELLO*    LGT RAIN  43  41  93 W16       29.74R FOG
WILLIAMSBURG*  CLOUDY    43  43 100 W12G18    29.67R
MIDDLESBORO*   DRIZZLE   46  44  93 W7        29.64R
HARLAN APT*    CLOUDY    45  43  93 SW6       29.61R
PIKE CO APT*   CLOUDY    44  44 100 W7        29.56R
BIG SANDY APT* RAIN      45  45 100 NW5       29.58R
MOREHEAD APT*  LGT RAIN  46  45  93 NW9G18    29.63R
ASHLAND*       CLOUDY    45  43  93 CALM      29.58R
$$

KYZ035-036-041-042-044-050-067-078-099-240300
...CENTRAL KENTUCKY...

CITY           SKY/WX    TMP DP  RH WIND       PRES   REMARKS
MT STERLING*   DRIZZLE   45  45 100 NW13G18   29.65R
FLEMING/MASON* LGT RAIN  44  44  99 NW8       29.63R
DANVILLE*      CLOUDY    41  41 100 NW12G18   29.71R FOG
LEXINGTON      CLOUDY    44  42  93 NW14G23   29.68R
FRANKFORT      CLOUDY    45  40  82 NW9       29.69R
LOUISVILLE     CLOUDY    44  38  79 NW14      29.75R
LEBANON*       CLOUDY    43  41  93 W10       29.73R FOG
GLASGOW*       CLOUDY    42  37  83 W7        29.78R
BOWLING GREEN  CLOUDY    43  36  76 NW12      29.80R
$$

KYZ091>093-OHZ055-061-077-WVZ005-015-034-035-042-240300
...SOUTHERN OHIO/WEST VIRGINIA...

CITY           SKY/WX    TMP DP  RH WIND       PRES   REMARKS
COVINGTON      DRIZZLE   45  43  93 NW16      29.66R
COLUMBUS       CLOUDY    45  43  93 N5        29.60R FOG
DAYTON         LGT RAIN  41  40  96 N14       29.66R VSB 1
WILMINGTON     LGT RAIN  43  42  97 NW10      29.62R FOG
HUNTINGTON     CLOUDY    44  41  89 N5        29.58R
CHARLESTON     DRIZZLE   41  38  89 N6        29.55R
BECKLEY        CLOUDY    39  38  96 NW5       29.48F
BLUEFIELD      CLOUDY    38  37  97 NW5       29.49R WCI  34
LOGAN CO APT*  CLOUDY    41  41 100 CALM      29.53R
$$

VAZ002-007-008-TNZ017-027-036-066-071-240300
...SOUTHWEST VIRGINIA/EAST TENNESSEE...

CITY           SKY/WX    TMP DP  RH WIND       PRES   REMARKS
WISE*          DRIZZLE   43  43 100 NW8G21    29.56R
JONESVILLE*    LGT RAIN  46  45  93 W7        29.62R
ABINGDON*      CLOUDY    47  44  86 NW14G23   29.52R
BRISTOL        CLOUDY    48  44  86 W15       29.55R
MORRISTOWN*    CLOUDY    48  45  87 NW10G17   29.62R
SEVIERVILLE*   CLOUDY    46  43  87 W13       29.64R
KNOXVILLE      LGT RAIN  47  43  86 W16       29.68R
LAFOLLETTE*    CLOUDY    46  43  87 VRB5G20   29.70R
OAK RIDGE      LGT RAIN  46  43  89 W7        29.69R
CROSSVILLE     CLOUDY    39  38  96 NW10      29.72R FOG     WCI  32
NASHVILLE      CLOUDY    44  36  73 NW14G20   29.81R
$$

...KEY TO REMARKS...
VSB - VISIBILITY IN MILES
WCI - WIND CHILL INDEX
HX  - HEAT INDEX

$$



USA.gov is the U.S. government's official web portal to all federal, state and local government web resources and services.